Regional Weather Roundup
Issued by NWS

Home | Current Version | Previous Version | Text Only | Print | Product List | Glossary Off
Versions: 1 2 3 4 5 6 7 8 9 10 11 12 13 14 15 16 17 18 19 20 21 22 23 24 25 26 27 28 29 30 31 32 33 34 35 36 37 38 39 40 41 42 43 44 45 46 47 48 49 50

000
ASUS43 KIND 200209
RWRIN

WEATHER ROUNDUP FOR INDIANA
NATIONAL WEATHER SERVICE INDIANAPOLIS IN
1000 PM EDT THU OCT 19 2017

NOTE: "FAIR" INDICATES FEW OR NO CLOUDS BELOW 12,000 FEET WITH NO
SIGNIFICANT WEATHER AND/OR OBSTRUCTIONS TO VISIBILITY.

* - STATION DOES NOT REPORT WEATHER SUCH AS PRECIPITATION OR FOG.

+ - STATION NOT QUALITY CONTROLLED BY THE NATIONAL WEATHER SERVICE.
    USE DATA WITH CAUTION...ESPECIALLY DEWPOINT AND RELATIVE
    HUMIDITY OBSERVATIONS.

INZ001>003-010>013-019-020-200300-
NORTHWEST INDIANA

CITY           SKY/WX    TMP DP  RH WIND       PRES   REMARKS
GARY /AIRPORT/ PTCLDY    48  45  87 SE5       30.18S
KNOX *+        PTCLDY    45  41  87 CALM      30.19S
LA PORTE +     CLEAR     46  41  82 CALM      30.19F
MICHIGAN CITY+ CLEAR     45  45 100 CALM      30.19S
MONTICELLO +   CLOUDY    56  47  72 CALM      30.18S
RENSSELAER +   CLOUDY    55  32  41 E3        30.18F HAZE
VALPARAISO     CLEAR     52  40  63 NE5       30.19S

$$

LMZ046-743>745-200300-
SOUTHERN LAKE MICHIGAN

STATION/POSITION TIME  TEMP    WIND        PRES    WAVE
                       AIR SEA DIR/SP/G            HT
                 (UTC) (F)     (DEG/KT/KT) (MB)    (FT)
BURNS HARBOR     0140   63     150/  3/  6 1022.0F
MICHIGAN CITY    0140   55     120/  7/  7   N/A
5NW MICH CITY    0200   58 58  140/  6/  6   N/A     1

$$

INZ004-005-014>016-021>024-200300-
NORTH CENTRAL INDIANA

CITY           SKY/WX    TMP DP  RH WIND       PRES   REMARKS
GOSHEN         CLEAR     48  37  65 CALM      30.20S
LOGANSPORT +   CLOUDY    54  46  76 CALM      30.20S
PERU/GRISSOM   CLOUDY    55  50  85 CALM      30.19S
SOUTH BEND     CLEAR     46  39  76 NE3       30.20F
WARSAW +       CLEAR     46  39  76 CALM      30.20S

$$

INZ006>009-017-018-025>027-200300-
NORTHEAST INDIANA

CITY           SKY/WX    TMP DP  RH WIND       PRES   REMARKS
AUBURN +       CLEAR     50  39  66 CALM      30.21R
FORT WAYNE     PTCLDY    53  45  74 CALM      30.20S
HUNTINGTON +   CLEAR     52  51  94 CALM      30.20R
KENDALLVILLE + CLEAR     47  40  76 CALM      30.20S

$$

INZ028-029-035-036-043>045-051>053-200300-
WEST CENTRAL INDIANA

CITY           SKY/WX    TMP DP  RH WIND       PRES   REMARKS
CRAWFORDSVL +  CLOUDY    54  50  87 SE5       30.20S
GREENCASTLE +  CLOUDY    54  50  87 CALM      30.21S
LAFAYETTE      CLEAR     55  53  93 CALM      30.18S
TERRE HAUTE    CLEAR     52  49  89 CALM      30.20S

$$

INZ030>032-037>040-046>048-054>057-064-065-200300-
CENTRAL INDIANA

CITY           SKY/WX    TMP DP  RH WIND       PRES   REMARKS
CP ATTERBURY + CLEAR     52  50  93 CALM      30.22S
COLUMBUS       CLEAR     55  48  76 CALM      30.22S
FISHERS *+     CLEAR     54  54 100 CALM      30.21S
FRANKFORT +    CLEAR     57  51  80 SE5       30.22S
GREENWOOD *+   CLEAR     56  52  88 CALM      30.22S
INDIANAPOLIS   CLEAR     62  51  67 SW5       30.21S
-EAGLE CREEK   CLEAR     60  52  74 CALM      30.20S
KOKOMO +       CLOUDY    53  49  86 CALM      30.20S
MT COMFORT *+  PTCLDY    52  52 100 CALM      30.22R
SHELBYVILLE    CLEAR     54  48  80 S3        30.21S
ZIONSVILLE +   PTCLDY    53  50  90 CALM      30.22S

$$

INZ033-034-041-042-049-050-058-059-200300-
EAST CENTRAL INDIANA

CITY           SKY/WX    TMP DP  RH WIND       PRES   REMARKS
MUNCIE         CLEAR     53  49  86 SW3       30.21S
RICHMOND +     CLOUDY    54  46  76 SW5       30.23S HAZE

$$

INZ060-061-067>069-081>083-085>088-200300-
SOUTHWEST INDIANA

CITY           SKY/WX    TMP DP  RH WIND       PRES   REMARKS
EVANSVILLE     CLEAR     58  52  80 CALM      30.21F
HUNTINGBURG +  CLEAR     59  52  77 SE6       30.22S
WASHINGTON +   CLEAR     60  49  68 S7        30.20S

$$

INZ062-063-066-070>080-084-089>092-200300-
SOUTH CENTRAL AND SOUTHEAST INDIANA

CITY           SKY/WX    TMP DP  RH WIND       PRES   REMARKS
BEDFORD +      CLEAR     61  50  67 CALM      30.21S
BLOOMINGTON    CLEAR     54  48  80 CALM      30.21S
MADISON *+     CLEAR     54  50  87 CALM      30.25S
NORTH VERNON + CLEAR     52  50  93 CALM      30.23S
SEYMOUR +      CLEAR     55  48  76 CALM      30.22S

$$





USA.gov is the U.S. government's official web portal to all federal, state and local government web resources and services.